Time,TemperatureF,DewpointF,PressureIn,WindDirection,WindDirectionDegrees,WindSpeedMPH,WindSpeedGustMPH,Humidity,HourlyPrecipIn,Conditions,Clouds,dailyrainin,SoftwareType,DateUTC
2013-05-01 00:03:00,43.0,32.0,30.28,NE,45,4.0,-999.0,65,-99.99,,,-99.99,,2013-05-01 04:03:00,
2013-05-01 00:12:00,43.0,32.0,30.28,NE,45,4.0,-999.0,65,-99.99,,,-99.99,,2013-05-01 04:12:00,
2013-05-01 00:22:00,43.0,32.0,30.29,NE,44,3.0,-999.0,65,-99.99,,,-99.99,,2013-05-01 04:22:00,
2013-05-01 00:32:00,43.0,32.0,30.29,NE,43,4.0,-999.0,65,-99.99,,,-99.99,,2013-05-01 04:32:00,
2013-05-01 00:43:00,43.0,32.0,30.29,NE,43,4.0,-999.0,65,-99.99,,,-99.99,,2013-05-01 04:43:00,
2013-05-01 00:52:00,43.0,32.0,30.28,NE,40,4.0,-999.0,66,-99.99,,,-99.99,,2013-05-01 04:52:00,
2013-05-01 01:02:00,42.0,31.0,30.29,NE,39,3.0,-999.0,65,-99.99,,,-99.99,,2013-05-01 05:02:00,
2013-05-01 01:12:00,42.0,31.0,30.29,NE,39,3.0,-999.0,65,-99.99,,,-99.99,,2013-05-01 05:12:00,
2013-05-01 01:22:00,42.0,31.0,30.29,NE,39,4.0,-999.0,66,-99.99,,,-99.99,,2013-05-01 05:22:00,
2013-05-01 01:32:00,42.0,31.0,30.29,NE,37,4.0,-999.0,66,-99.99,,,-99.99,,2013-05-01 05:32:00,
2013-05-01 01:42:00,42.0,31.0,30.29,NE,37,4.0,-999.0,66,-99.99,,,-99.99,,2013-05-01 05:42:00,
2013-05-01 01:52:00,42.0,31.0,30.29,NE,37,3.0,-999.0,66,-99.99,,,-99.99,,2013-05-01 05:52:00,
2013-05-01 02:02:00,41.0,31.0,30.29,NE,37,4.0,-999.0,66,-99.99,,,-99.99,,2013-05-01 06:02:00,
2013-05-01 02:12:00,41.0,31.0,30.29,NE,37,4.0,-999.0,66,-99.99,,,-99.99,,2013-05-01 06:12:00,
2013-05-01 02:22:00,41.0,31.0,30.29,NE,51,4.0,-999.0,66,-99.99,,,-99.99,,2013-05-01 06:22:00,
2013-05-01 02:32:00,42.0,31.0,30.29,ENE,58,4.0,-999.0,65,-99.99,,,-99.99,,2013-05-01 06:32:00,
2013-05-01 02:42:00,42.0,31.0,30.29,ENE,58,4.0,-999.0,65,-99.99,,,-99.99,,2013-05-01 06:42:00,
2013-05-01 02:51:00,42.0,31.0,30.29,NE,55,4.0,-999.0,65,-99.99,,,-99.99,,2013-05-01 06:51:00,
2013-05-01 03:01:00,43.0,32.0,30.29,NE,46,5.0,-999.0,65,-99.99,,,-99.99,,2013-05-01 07:01:00,
2013-05-01 03:11:00,43.0,32.0,30.29,NE,46,5.0,-999.0,65,-99.99,,,-99.99,,2013-05-01 07:11:00,
2013-05-01 03:21:00,43.0,32.0,30.29,NE,51,5.0,-999.0,65,-99.99,,,-99.99,,2013-05-01 07:21:00,
2013-05-01 03:32:00,44.0,33.0,30.29,NNE,32,5.0,-999.0,66,-99.99,,,-99.99,,2013-05-01 07:32:00,
2013-05-01 03:42:00,44.0,33.0,30.29,NNE,32,5.0,-999.0,66,-99.99,,,-99.99,,2013-05-01 07:42:00,
2013-05-01 03:52:00,44.0,33.0,30.29,NNE,29,6.0,-999.0,65,-99.99,,,-99.99,,2013-05-01 07:52:00,
2013-05-01 04:02:00,44.0,33.0,30.30,NNE,30,5.0,-999.0,65,-99.99,,,-99.99,,2013-05-01 08:02:00,
2013-05-01 04:12:00,44.0,33.0,30.30,NNE,30,5.0,-999.0,65,-99.99,,,-99.99,,2013-05-01 08:12:00,
2013-05-01 04:22:00,44.0,33.0,30.30,NNE,23,5.0,-999.0,65,-99.99,,,-99.99,,2013-05-01 08:22:00,
2013-05-01 04:32:00,44.0,33.0,30.30,NNE,27,5.0,-999.0,65,-99.99,,,-99.99,,2013-05-01 08:32:00,
2013-05-01 04:42:00,44.0,33.0,30.30,NNE,27,5.0,-999.0,65,-99.99,,,-99.99,,2013-05-01 08:42:00,
2013-05-01 04:53:00,44.0,33.0,30.30,NNE,14,5.0,-999.0,65,-99.99,,,-99.99,,2013-05-01 08:53:00,
2013-05-01 05:01:00,44.0,33.0,30.31,North,8,5.0,-999.0,65,-99.99,,,-99.99,,2013-05-01 09:01:00,
2013-05-01 05:12:00,44.0,33.0,30.31,North,8,5.0,-999.0,65,-99.99,,,-99.99,,2013-05-01 09:12:00,
2013-05-01 05:21:00,44.0,33.0,30.31,North,1,5.0,-999.0,65,-99.99,,,-99.99,,2013-05-01 09:21:00,
2013-05-01 05:33:00,44.0,33.0,30.32,NNE,22,5.0,-999.0,65,-99.99,,,-99.99,,2013-05-01 09:33:00,
2013-05-01 05:43:00,44.0,33.0,30.32,NNE,22,5.0,-999.0,65,-99.99,,,-99.99,,2013-05-01 09:43:00,
2013-05-01 05:53:00,44.0,33.0,30.32,NNE,21,5.0,-999.0,65,-99.99,,,-99.99,,2013-05-01 09:53:00,
2013-05-01 06:03:00,44.0,33.0,30.33,NNE,13,5.0,-999.0,65,-99.99,,,-99.99,,2013-05-01 10:03:00,
2013-05-01 06:12:00,44.0,33.0,30.33,NNE,13,5.0,-999.0,65,-99.99,,,-99.99,,2013-05-01 10:12:00,
2013-05-01 06:22:00,44.0,33.0,30.33,NNE,15,6.0,-999.0,65,-99.99,,,-99.99,,2013-05-01 10:22:00,
2013-05-01 06:33:00,44.0,33.0,30.34,NNE,18,4.0,-999.0,65,-99.99,,,-99.99,,2013-05-01 10:33:00,
2013-05-01 06:42:00,44.0,33.0,30.34,NNE,18,4.0,-999.0,65,-99.99,,,-99.99,,2013-05-01 10:42:00,
2013-05-01 06:52:00,45.0,34.0,30.34,NE,46,5.0,-999.0,64,-99.99,,,-99.99,,2013-05-01 10:52:00,
2013-05-01 07:03:00,46.0,35.0,30.35,NE,38,5.0,-999.0,64,-99.99,,,-99.99,,2013-05-01 11:03:00,
2013-05-01 07:11:00,46.0,35.0,30.35,NE,38,5.0,-999.0,64,-99.99,,,-99.99,,2013-05-01 11:11:00,
2013-05-01 07:22:00,47.0,35.0,30.35,NNE,20,6.0,-999.0,64,-99.99,,,-99.99,,2013-05-01 11:22:00,
2013-05-01 07:32:00,48.0,36.0,30.35,NE,40,7.0,-999.0,64,-99.99,,,-99.99,,2013-05-01 11:32:00,
2013-05-01 07:42:00,48.0,36.0,30.35,NE,40,7.0,-999.0,64,-99.99,,,-99.99,,2013-05-01 11:42:00,
2013-05-01 07:52:00,48.0,36.0,30.36,NE,41,7.0,-999.0,64,-99.99,,,-99.99,,2013-05-01 11:52:00,
2013-05-01 08:01:00,49.0,38.0,30.37,North,1,8.0,-999.0,65,-99.99,,,-99.99,,2013-05-01 12:01:00,
2013-05-01 08:11:00,49.0,38.0,30.37,North,1,8.0,-999.0,65,-99.99,,,-99.99,,2013-05-01 12:11:00,
2013-05-01 08:21:00,49.0,38.0,30.37,NNE,18,7.0,-999.0,65,-99.99,,,-99.99,,2013-05-01 12:21:00,
2013-05-01 08:32:00,50.0,38.0,30.37,NE,40,5.0,-999.0,64,-99.99,,,-99.99,,2013-05-01 12:32:00,
2013-05-01 08:42:00,50.0,38.0,30.37,NE,40,5.0,-999.0,64,-99.99,,,-99.99,,2013-05-01 12:42:00,
2013-05-01 08:52:00,51.0,40.0,30.37,ENE,62,7.0,-999.0,65,-99.99,,,-99.99,,2013-05-01 12:52:00,
2013-05-01 09:01:00,52.0,41.0,30.37,NNE,30,4.0,-999.0,65,-99.99,,,-99.99,,2013-05-01 13:01:00,
2013-05-01 09:11:00,52.0,41.0,30.37,NNE,30,4.0,-999.0,65,-99.99,,,-99.99,,2013-05-01 13:11:00,
2013-05-01 09:22:00,53.0,42.0,30.38,NE,41,6.0,-999.0,65,-99.99,,,-99.99,,2013-05-01 13:22:00,
2013-05-01 09:32:00,54.0,43.0,30.37,NE,51,6.0,-999.0,65,-99.99,,,-99.99,,2013-05-01 13:32:00,
2013-05-01 09:42:00,54.0,43.0,30.37,NE,51,6.0,-999.0,65,-99.99,,,-99.99,,2013-05-01 13:42:00,
2013-05-01 09:52:00,55.0,43.0,30.38,NE,46,6.0,-999.0,65,-99.99,,,-99.99,,2013-05-01 13:52:00,
2013-05-01 10:02:00,55.0,43.0,30.38,ENE,62,5.0,-999.0,65,-99.99,,,-99.99,,2013-05-01 14:02:00,
2013-05-01 10:11:00,55.0,43.0,30.38,ENE,62,5.0,-999.0,65,-99.99,,,-99.99,,2013-05-01 14:11:00,
2013-05-01 10:22:00,56.0,44.0,30.39,NE,53,6.0,-999.0,65,-99.99,,,-99.99,,2013-05-01 14:22:00,
2013-05-01 10:32:00,55.0,43.0,30.39,East,86,8.0,-999.0,65,-99.99,,,-99.99,,2013-05-01 14:32:00,
2013-05-01 10:42:00,55.0,43.0,30.39,East,86,8.0,-999.0,65,-99.99,,,-99.99,,2013-05-01 14:42:00,
2013-05-01 10:52:00,55.0,43.0,30.40,East,96,10.0,-999.0,65,-99.99,,,-99.99,,2013-05-01 14:52:00,
2013-05-01 11:01:00,55.0,43.0,30.40,ESE,106,9.0,-999.0,65,-99.99,,,-99.99,,2013-05-01 15:01:00,
2013-05-01 11:11:00,55.0,43.0,30.40,ESE,106,9.0,-999.0,65,-99.99,,,-99.99,,2013-05-01 15:11:00,
2013-05-01 11:21:00,55.0,43.0,30.40,ESE,108,11.0,-999.0,65,-99.99,,,-99.99,,2013-05-01 15:21:00,
2013-05-01 11:33:00,54.0,42.0,30.40,East,99,10.0,-999.0,64,-99.99,,,-99.99,,2013-05-01 15:33:00,
2013-05-01 11:43:00,54.0,42.0,30.40,East,99,10.0,-999.0,64,-99.99,,,-99.99,,2013-05-01 15:43:00,
2013-05-01 11:53:00,55.0,43.0,30.40,East,98,11.0,-999.0,65,-99.99,,,-99.99,,2013-05-01 15:53:00,
2013-05-01 12:03:00,55.0,43.0,30.40,ESE,116,9.0,-999.0,64,-99.99,,,-99.99,,2013-05-01 16:03:00,
2013-05-01 12:12:00,55.0,43.0,30.40,ESE,116,9.0,-999.0,64,-99.99,,,-99.99,,2013-05-01 16:12:00,
2013-05-01 12:22:00,55.0,43.0,30.41,East,99,10.0,-999.0,64,-99.99,,,-99.99,,2013-05-01 16:22:00,
2013-05-01 12:32:00,55.0,43.0,30.41,ESE,112,9.0,-999.0,64,-99.99,,,-99.99,,2013-05-01 16:32:00,
2013-05-01 12:42:00,55.0,43.0,30.41,ESE,112,9.0,-999.0,64,-99.99,,,-99.99,,2013-05-01 16:42:00,
2013-05-01 12:53:00,55.0,43.0,30.41,East,101,8.0,-999.0,64,-99.99,,,-99.99,,2013-05-01 16:53:00,
2013-05-01 13:02:00,55.0,43.0,30.40,East,82,8.0,-999.0,64,-99.99,,,-99.99,,2013-05-01 17:02:00,
2013-05-01 13:12:00,55.0,43.0,30.40,East,82,8.0,-999.0,64,-99.99,,,-99.99,,2013-05-01 17:12:00,
2013-05-01 13:22:00,55.0,43.0,30.40,ESE,110,8.0,-999.0,63,-99.99,,,-99.99,,2013-05-01 17:22:00,
2013-05-01 13:32:00,55.0,43.0,30.40,SE,132,7.0,-999.0,63,-99.99,,,-99.99,,2013-05-01 17:32:00,
2013-05-01 13:42:00,55.0,43.0,30.40,SE,132,7.0,-999.0,63,-99.99,,,-99.99,,2013-05-01 17:42:00,
2013-05-01 13:52:00,54.0,42.0,30.40,SE,136,7.0,-999.0,63,-99.99,,,-99.99,,2013-05-01 17:52:00,
2013-05-01 14:02:00,52.0,40.0,30.40,SE,124,8.0,-999.0,63,-99.99,,,-99.99,,2013-05-01 18:02:00,
2013-05-01 14:11:00,52.0,40.0,30.40,SE,124,8.0,-999.0,63,-99.99,,,-99.99,,2013-05-01 18:11:00,
2013-05-01 14:22:00,52.0,40.0,30.40,SSE,151,7.0,-999.0,63,-99.99,,,-99.99,,2013-05-01 18:22:00,
2013-05-01 14:32:00,52.0,40.0,30.40,SE,146,8.0,-999.0,63,-99.99,,,-99.99,,2013-05-01 18:32:00,
2013-05-01 14:42:00,52.0,40.0,30.40,SE,146,8.0,-999.0,63,-99.99,,,-99.99,,2013-05-01 18:42:00,
2013-05-01 14:52:00,51.0,39.0,30.40,SE,127,8.0,-999.0,63,-99.99,,,-99.99,,2013-05-01 18:52:00,
2013-05-01 15:02:00,52.0,40.0,30.40,ESE,121,6.0,-999.0,63,-99.99,,,-99.99,,2013-05-01 19:02:00,
2013-05-01 15:11:00,52.0,40.0,30.40,ESE,121,6.0,-999.0,63,-99.99,,,-99.99,,2013-05-01 19:11:00,
2013-05-01 15:22:00,52.0,40.0,30.40,SE,140,6.0,-999.0,63,-99.99,,,-99.99,,2013-05-01 19:22:00,
2013-05-01 15:32:00,53.0,40.0,30.40,ESE,109,4.0,-999.0,62,-99.99,,,-99.99,,2013-05-01 19:32:00,
2013-05-01 15:43:00,53.0,40.0,30.40,ESE,109,4.0,-999.0,62,-99.99,,,-99.99,,2013-05-01 19:43:00,
2013-05-01 15:52:00,53.0,40.0,30.40,SE,138,5.0,-999.0,62,-99.99,,,-99.99,,2013-05-01 19:52:00,
2013-05-01 16:02:00,52.0,39.0,30.40,SE,124,7.0,-999.0,62,-99.99,,,-99.99,,2013-05-01 20:02:00,
2013-05-01 16:11:00,52.0,39.0,30.40,SE,124,7.0,-999.0,62,-99.99,,,-99.99,,2013-05-01 20:11:00,
2013-05-01 16:21:00,52.0,39.0,30.39,ESE,106,6.0,-999.0,62,-99.99,,,-99.99,,2013-05-01 20:21:00,
2013-05-01 16:32:00,51.0,39.0,30.38,ESE,109,6.0,-999.0,63,-99.99,,,-99.99,,2013-05-01 20:32:00,
2013-05-01 16:42:00,51.0,39.0,30.38,ESE,109,6.0,-999.0,63,-99.99,,,-99.99,,2013-05-01 20:42:00,
2013-05-01 16:52:00,51.0,39.0,30.38,SE,131,6.0,-999.0,63,-99.99,,,-99.99,,2013-05-01 20:52:00,
2013-05-01 17:01:00,49.0,37.0,30.39,SSE,157,6.0,-999.0,64,-99.99,,,-99.99,,2013-05-01 21:01:00,
2013-05-01 17:11:00,49.0,37.0,30.39,SSE,157,6.0,-999.0,64,-99.99,,,-99.99,,2013-05-01 21:11:00,
2013-05-01 17:22:00,49.0,37.0,30.39,SSE,158,6.0,-999.0,64,-99.99,,,-99.99,,2013-05-01 21:22:00,
2013-05-01 17:32:00,49.0,37.0,30.39,SE,141,5.0,-999.0,64,-99.99,,,-99.99,,2013-05-01 21:32:00,
2013-05-01 17:43:00,49.0,37.0,30.39,SE,141,5.0,-999.0,64,-99.99,,,-99.99,,2013-05-01 21:43:00,
2013-05-01 17:53:00,49.0,37.0,30.39,SE,139,5.0,-999.0,64,-99.99,,,-99.99,,2013-05-01 21:53:00,
2013-05-01 18:03:00,49.0,37.0,30.40,SSE,156,4.0,-999.0,63,-99.99,,,-99.99,,2013-05-01 22:03:00,
2013-05-01 18:12:00,49.0,37.0,30.40,SSE,156,4.0,-999.0,63,-99.99,,,-99.99,,2013-05-01 22:12:00,
2013-05-01 18:23:00,50.0,38.0,30.40,South,174,3.0,-999.0,63,-99.99,,,-99.99,,2013-05-01 22:23:00,
2013-05-01 18:33:00,50.0,38.0,30.40,South,169,3.0,-999.0,63,-99.99,,,-99.99,,2013-05-01 22:33:00,
2013-05-01 18:42:00,50.0,38.0,30.40,South,169,3.0,-999.0,63,-99.99,,,-99.99,,2013-05-01 22:42:00,
2013-05-01 18:53:00,50.0,38.0,30.39,SSE,149,4.0,-999.0,63,-99.99,,,-99.99,,2013-05-01 22:53:00,
2013-05-01 19:02:00,50.0,38.0,30.39,SSE,164,2.0,-999.0,63,-99.99,,,-99.99,,2013-05-01 23:02:00,
2013-05-01 19:12:00,50.0,38.0,30.39,SSE,164,2.0,-999.0,63,-99.99,,,-99.99,,2013-05-01 23:12:00,
2013-05-01 19:21:00,49.0,37.0,30.40,South,181,2.0,-999.0,63,-99.99,,,-99.99,,2013-05-01 23:21:00,
2013-05-01 19:32:00,49.0,37.0,30.40,SSW,207,2.0,-999.0,63,-99.99,,,-99.99,,2013-05-01 23:32:00,
2013-05-01 19:42:00,49.0,37.0,30.40,SSW,207,2.0,-999.0,63,-99.99,,,-99.99,,2013-05-01 23:42:00,
2013-05-01 19:52:00,49.0,37.0,30.40,SSW,207,0.0,-999.0,63,-99.99,,,-99.99,,2013-05-01 23:52:00,
2013-05-01 20:01:00,49.0,37.0,30.40,SSW,206,0.0,-999.0,63,-99.99,,,-99.99,,2013-05-02 00:01:00,
2013-05-01 20:11:00,49.0,37.0,30.40,SSW,206,0.0,-999.0,63,-99.99,,,-99.99,,2013-05-02 00:11:00,
2013-05-01 20:22:00,48.0,36.0,30.40,SSW,207,0.0,-999.0,63,-99.99,,,-99.99,,2013-05-02 00:22:00,
2013-05-01 20:32:00,47.0,35.0,30.41,South,174,1.0,-999.0,63,-99.99,,,-99.99,,2013-05-02 00:32:00,
2013-05-01 20:42:00,47.0,35.0,30.41,South,174,1.0,-999.0,63,-99.99,,,-99.99,,2013-05-02 00:42:00,
2013-05-01 20:52:00,47.0,35.0,30.41,South,174,1.0,-999.0,63,-99.99,,,-99.99,,2013-05-02 00:52:00,
2013-05-01 21:01:00,46.0,35.0,30.42,South,174,2.0,-999.0,64,-99.99,,,-99.99,,2013-05-02 01:01:00,
2013-05-01 21:11:00,46.0,35.0,30.42,South,174,2.0,-999.0,64,-99.99,,,-99.99,,2013-05-02 01:11:00,
2013-05-01 21:22:00,45.0,34.0,30.42,SE,134,3.0,-999.0,64,-99.99,,,-99.99,,2013-05-02 01:22:00,
2013-05-01 21:32:00,45.0,34.0,30.42,SE,134,2.0,-999.0,64,-99.99,,,-99.99,,2013-05-02 01:32:00,
2013-05-01 21:42:00,45.0,34.0,30.42,SE,134,2.0,-999.0,64,-99.99,,,-99.99,,2013-05-02 01:42:00,
2013-05-01 21:52:00,44.0,33.0,30.42,SE,134,3.0,-999.0,64,-99.99,,,-99.99,,2013-05-02 01:52:00,
2013-05-01 22:02:00,44.0,33.0,30.42,SE,134,2.0,-999.0,65,-99.99,,,-99.99,,2013-05-02 02:02:00,
2013-05-01 22:12:00,44.0,33.0,30.42,SE,134,2.0,-999.0,65,-99.99,,,-99.99,,2013-05-02 02:12:00,
2013-05-01 22:21:00,43.0,32.0,30.42,SE,134,1.0,-999.0,65,-99.99,,,-99.99,,2013-05-02 02:21:00,
2013-05-01 22:32:00,43.0,32.0,30.42,SE,134,1.0,-999.0,65,-99.99,,,-99.99,,2013-05-02 02:32:00,
2013-05-01 22:42:00,43.0,32.0,30.42,SE,134,1.0,-999.0,65,-99.99,,,-99.99,,2013-05-02 02:42:00,
2013-05-01 22:51:00,43.0,32.0,30.42,SE,134,1.0,-999.0,65,-99.99,,,-99.99,,2013-05-02 02:51:00,
2013-05-01 23:01:00,43.0,32.0,30.42,NE,51,3.0,-999.0,65,-99.99,,,-99.99,,2013-05-02 03:01:00,
2013-05-01 23:11:00,43.0,32.0,30.42,NE,51,3.0,-999.0,65,-99.99,,,-99.99,,2013-05-02 03:11:00,
2013-05-01 23:22:00,43.0,32.0,30.41,NE,51,2.0,-999.0,65,-99.99,,,-99.99,,2013-05-02 03:22:00,
2013-05-01 23:33:00,43.0,32.0,30.41,NE,51,4.0,-999.0,65,-99.99,,,-99.99,,2013-05-02 03:33:00,
2013-05-01 23:43:00,43.0,32.0,30.41,NE,51,4.0,-999.0,65,-99.99,,,-99.99,,2013-05-02 03:43:00,
2013-05-01 23:53:00,43.0,32.0,30.41,NE,45,3.0,-999.0,65,-99.99,,,-99.99,,2013-05-02 03:53:00,